Location: Unspecified
(41.5000°N, 0.0000°E)
Time: 10:40:45
(UTC+00:00)

A-11 Canister half - Pass Details

Date: 02 July 2019
Orbit: 1526 x 1683 km, 47.3° (Epoch: 16 August)

Event Time Altitude Azimuth Distance (km) Brightness Sun altitude
Exits shadow 22:59:14 16° 112° (ESE) 3,366 10.4 -23.8°
Drops below altitude 10° 23:02:48 10° 90° (E) 3,783 10.9 -24.0°
Sets 23:07:21 0° 71° (ENE) 4,743 11.6 -24.2°
